Regional Weather Roundup
Issued by NWS

Home | Current Version | Previous Version | Graphics & Text | Print | Product List | Glossary On
Versions: 1 2 3 4 5 6 7 8 9 10 11 12 13 14 15 16 17 18 19 20 21 22 23 24 25 26 27 28 29 30 31 32 33 34 35 36 37 38 39 40 41 42 43 44 45 46 47 48 49 50
000
ASUS43 KOAX 280310
RWRNE

WEATHER ROUNDUP FOR NEBRASKA
NATIONAL WEATHER SERVICE OMAHA NE
1000 PM CDT TUE SEP 27 2016

NOTES: SATELLITE DATA IS BEING USED TO AUGMENT CLOUD COVER ABOVE
       12000 FEET.
       "FAIR" INDICATES FEW OR NO CLOUDS BELOW 12,000 FEET WITH NO
       SIGNIFICANT WEATHER AND/OR OBSTRUCTIONS TO VISIBILITY.

  * THESE STATIONS DO NOT REPORT WEATHER SUCH AS RAIN...SNOW OR FOG.

NEZ001>004-019>022-054>056-280400-
NEBRASKA PANHANDLE

CITY           SKY/WX    TMP DP  RH WIND       PRES   REMARKS
SCOTTSBLUFF    CLEAR     59  42  53 N3        30.10R
ALLIANCE       CLEAR     53  40  61 SW5       30.08R
CHADRON        CLEAR     56  43  61 W5        30.06R
KIMBALL        CLEAR     55  40  56 SW3       30.15R
SIDNEY         CLEAR     52  34  50 NW3       30.11R
$$

NEZ057>060-069>072-079>082-280400-
SOUTHWEST NEBRASKA

CITY           SKY/WX    TMP DP  RH WIND       PRES   REMARKS
NORTH PLATTE   CLEAR     59  46  62 CALM      30.00R
IMPERIAL       CLEAR     63  40  42 NW3       30.03R
LEXINGTON      CLEAR     57  47  67 CALM      29.97R
MCCOOK         CLEAR     60  44  55 W7        29.98R
OGALLALA       CLEAR     57  39  52 CALM      30.04R
$$

NEZ005>010-023>029-035>040-094-280400-
NORTH CENTRAL NEBRASKA

CITY           SKY/WX    TMP DP  RH WIND       PRES   REMARKS
VALENTINE      CLEAR     59  40  49 CALM      30.00R
AINSWORTH      CLEAR     58  46  66 N5        29.99R
BROKEN BOW     CLEAR     58  42  55 N9        29.97R
O`NEILL        CLEAR     61  44  53 NW5       29.95S
ORD            CLEAR     56  43  61 NW6       29.95R
THEDFORD       CLEAR     59  44  56 W3        30.02R
$$

NEZ041-046>049-061>064-073>077-083>087-280400-
SOUTH CENTRAL NEBRASKA

CITY           SKY/WX    TMP DP  RH WIND       PRES   REMARKS
GRAND ISLAND   CLEAR     62  48  60 N7        29.93R
AURORA         CLEAR     56  51  82 NE8       29.92R
HASTINGS       CLEAR     63  48  58 NW3       29.93R
HEBRON         CLEAR     59  51  75 CALM      29.89R
HOLDREGE       CLEAR     58  47  65 NW3       29.96R
KEARNEY *      CLEAR     64  45  48 NW7       29.94R
YORK           CLEAR     55  50  82 N9        29.92R
$$

NEZ011>018-030>034-042>045-280400-
NORTHEAST NEBRASKA

CITY           SKY/WX    TMP DP  RH WIND       PRES   REMARKS
NORFOLK        CLEAR     54  47  77 W5        29.91R
ALBION         CLEAR     56  47  72 CALM      29.93R
BLAIR          CLEAR     62  47  56 CALM      29.87S
FREMONT        CLEAR     58  53  83 CALM      29.89S
TEKAMAH        CLEAR     54  49  83 W5        29.86S
WAYNE          CLEAR     51  47  86 CALM      29.91R
$$

NEZ050>053-065>068-078-088>093-280400-
SOUTHEAST NEBRASKA

CITY           SKY/WX    TMP DP  RH WIND       PRES   REMARKS
LINCOLN        CLEAR     58  52  80 N3        29.90R
OMAHA EPPLEY   CLEAR     61  52  72 SE3       29.87R
BEATRICE       CLEAR     60  52  75 CALM      29.89R
FALLS CITY     CLEAR     61  53  75 CALM      29.86S
NEBRASKA CITY  CLEAR     64  36  35 N3        29.88R
PLATTSMOUTH    CLEAR     64  41  43 W5        29.88R
$$

NEZ044-045-051>053-067-280400-
OMAHA AREA

CITY           SKY/WX    TMP DP  RH WIND       PRES   REMARKS
OMAHA EPPLEY   CLEAR     61  52  72 SE3       29.87R
BLAIR          CLEAR     62  47  56 CALM      29.87S
FREMONT        CLEAR     58  53  83 CALM      29.89S
MILLARD        CLEAR     59  53  80 CALM      29.88R
OFFUTT AFB     CLEAR     54  52  94 CALM      29.86R
PLATTSMOUTH    CLEAR     64  41  43 W5        29.88R
WAHOO          FAIR      59  52  79 W3        29.89R
$$



USA.gov is the U.S. government's official web portal to all federal, state and local government web resources and services.